Time,TemperatureF,DewpointF,PressureIn,WindDirection,WindDirectionDegrees,WindSpeedMPH,WindSpeedGustMPH,Humidity,HourlyPrecipIn,Conditions,Clouds,dailyrainin,SolarRadiationWatts/m^2,SoftwareType,DateUTC
2013-05-02 00:07:00,65.5,31.3,29.67,North,-999,-999.0,-999.0,5,0.00,,,-99.99,0.0,Linux-Irox,2013-05-02 07:07:00,
2013-05-02 00:17:00,65.1,30.9,29.67,North,-999,-999.0,-999.0,5,0.00,,,-99.99,0.0,Linux-Irox,2013-05-02 07:17:00,
2013-05-02 00:27:00,64.9,30.7,29.68,North,-999,-999.0,-999.0,5,0.00,,,-99.99,0.0,Linux-Irox,2013-05-02 07:27:00,
2013-05-02 00:37:00,66.7,32.5,29.68,North,-999,-999.0,-999.0,5,0.00,,,-99.99,0.0,Linux-Irox,2013-05-02 07:37:00,
2013-05-02 00:47:00,66.4,32.2,29.67,North,-999,-999.0,-999.0,5,0.00,,,-99.99,0.0,Linux-Irox,2013-05-02 07:47:00,
2013-05-02 00:57:00,65.7,31.5,29.67,North,-999,-999.0,-999.0,5,0.00,,,-99.99,0.0,Linux-Irox,2013-05-02 07:57:00,
2013-05-02 01:07:00,64.6,30.4,29.69,North,-999,-999.0,-999.0,5,0.00,,,-99.99,0.0,Linux-Irox,2013-05-02 08:07:00,
2013-05-02 01:17:00,65.7,31.5,29.69,North,-999,-999.0,-999.0,5,0.00,,,-99.99,0.0,Linux-Irox,2013-05-02 08:17:00,
2013-05-02 01:27:00,66.6,32.4,29.68,North,-999,-999.0,-999.0,5,0.00,,,-99.99,0.0,Linux-Irox,2013-05-02 08:27:00,
2013-05-02 01:37:00,67.6,33.4,29.68,North,-999,-999.0,-999.0,5,0.00,,,-99.99,0.0,Linux-Irox,2013-05-02 08:37:00,
2013-05-02 01:47:00,67.5,33.3,29.68,North,-999,-999.0,-999.0,5,0.00,,,-99.99,0.0,Linux-Irox,2013-05-02 08:47:00,
2013-05-02 01:57:00,67.6,33.4,29.68,North,-999,-999.0,-999.0,5,0.00,,,-99.99,0.0,Linux-Irox,2013-05-02 08:57:00,
2013-05-02 02:07:00,67.3,33.1,29.68,North,-999,-999.0,-999.0,5,0.00,,,-99.99,0.0,Linux-Irox,2013-05-02 09:07:00,
2013-05-02 02:17:00,67.3,33.1,29.68,North,-999,-999.0,-999.0,5,0.00,,,-99.99,0.0,Linux-Irox,2013-05-02 09:17:00,
2013-05-02 02:27:00,67.3,33.1,29.68,North,-999,-999.0,-999.0,5,0.00,,,-99.99,0.0,Linux-Irox,2013-05-02 09:27:00,
2013-05-02 02:37:00,66.9,32.7,29.68,North,-999,-999.0,-999.0,5,0.00,,,-99.99,0.0,Linux-Irox,2013-05-02 09:37:00,
2013-05-02 02:47:00,67.1,32.9,29.68,North,-999,-999.0,-999.0,5,0.00,,,-99.99,0.0,Linux-Irox,2013-05-02 09:47:00,
2013-05-02 02:57:00,67.3,33.1,29.68,North,-999,-999.0,-999.0,5,0.00,,,-99.99,0.0,Linux-Irox,2013-05-02 09:57:00,
2013-05-02 03:07:00,67.1,32.9,29.68,North,-999,-999.0,-999.0,5,0.00,,,-99.99,0.0,Linux-Irox,2013-05-02 10:07:00,
2013-05-02 03:17:00,67.1,32.9,29.68,North,-999,-999.0,-999.0,5,0.00,,,-99.99,0.0,Linux-Irox,2013-05-02 10:17:00,
2013-05-02 03:27:00,66.7,32.5,29.68,North,-999,-999.0,-999.0,5,0.00,,,-99.99,0.0,Linux-Irox,2013-05-02 10:27:00,
2013-05-02 03:37:00,67.3,33.1,29.68,North,-999,-999.0,-999.0,5,0.00,,,-99.99,0.0,Linux-Irox,2013-05-02 10:37:00,
2013-05-02 03:47:00,67.3,33.1,29.69,North,-999,-999.0,-999.0,5,0.00,,,-99.99,0.0,Linux-Irox,2013-05-02 10:47:00,
2013-05-02 03:57:00,67.1,32.9,29.69,North,-999,-999.0,-999.0,5,0.00,,,-99.99,0.0,Linux-Irox,2013-05-02 10:57:00,
2013-05-02 04:07:00,66.6,32.4,29.69,North,-999,-999.0,-999.0,5,0.00,,,-99.99,0.0,Linux-Irox,2013-05-02 11:07:00,
2013-05-02 04:17:00,66.2,32.0,29.69,North,-999,-999.0,-999.0,5,0.00,,,-99.99,0.0,Linux-Irox,2013-05-02 11:17:00,
2013-05-02 04:27:00,65.8,31.6,29.69,North,-999,-999.0,-999.0,5,0.00,,,-99.99,0.0,Linux-Irox,2013-05-02 11:27:00,
2013-05-02 04:37:00,65.8,31.6,29.69,North,-999,-999.0,-999.0,5,0.00,,,-99.99,0.0,Linux-Irox,2013-05-02 11:37:00,
2013-05-02 04:47:00,66.0,31.8,29.68,North,-999,-999.0,-999.0,5,0.00,,,-99.99,0.0,Linux-Irox,2013-05-02 11:47:00,
2013-05-02 04:57:00,64.8,30.6,29.68,North,-999,-999.0,-999.0,5,0.00,,,-99.99,0.0,Linux-Irox,2013-05-02 11:57:00,
2013-05-02 05:07:00,64.6,30.4,29.69,North,-999,-999.0,-999.0,5,0.00,,,-99.99,0.0,Linux-Irox,2013-05-02 12:07:00,
2013-05-02 05:17:00,64.2,30.0,29.69,North,-999,-999.0,-999.0,5,0.00,,,-99.99,0.0,Linux-Irox,2013-05-02 12:17:00,
2013-05-02 05:27:00,64.9,30.7,29.68,North,-999,-999.0,-999.0,5,0.00,,,-99.99,0.0,Linux-Irox,2013-05-02 12:27:00,
2013-05-02 05:37:00,65.1,30.9,29.68,North,-999,-999.0,-999.0,5,0.00,,,-99.99,0.0,Linux-Irox,2013-05-02 12:37:00,
2013-05-02 05:47:00,64.9,30.7,29.69,North,-999,-999.0,-999.0,5,0.00,,,-99.99,0.0,Linux-Irox,2013-05-02 12:47:00,
2013-05-02 05:57:00,64.8,30.6,29.69,North,-999,-999.0,-999.0,5,0.00,,,-99.99,0.0,Linux-Irox,2013-05-02 12:57:00,
2013-05-02 06:07:00,64.8,30.6,29.69,North,-999,-999.0,-999.0,5,0.00,,,-99.99,0.0,Linux-Irox,2013-05-02 13:07:00,
2013-05-02 06:16:00,64.8,30.6,29.69,North,-999,-999.0,-999.0,5,0.00,,,-99.99,0.0,Linux-Irox,2013-05-02 13:16:00,
2013-05-02 06:17:00,64.9,30.7,29.69,North,-999,-999.0,-999.0,5,0.00,,,-99.99,0.0,Linux-Irox,2013-05-02 13:17:00,
2013-05-02 06:27:00,64.8,30.6,29.69,North,-999,-999.0,-999.0,5,0.00,,,-99.99,0.0,Linux-Irox,2013-05-02 13:27:00,
2013-05-02 06:31:00,64.9,30.7,29.69,North,-999,-999.0,-999.0,5,0.00,,,-99.99,0.0,Linux-Irox,2013-05-02 13:31:00,
2013-05-02 06:37:00,64.9,30.7,29.69,North,-999,-999.0,-999.0,5,0.00,,,-99.99,0.0,Linux-Irox,2013-05-02 13:37:00,
2013-05-02 06:46:00,65.1,30.9,29.69,North,-999,-999.0,-999.0,5,0.00,,,-99.99,0.0,Linux-Irox,2013-05-02 13:46:00,
2013-05-02 06:47:00,64.8,30.6,29.69,North,-999,-999.0,-999.0,5,0.00,,,-99.99,0.0,Linux-Irox,2013-05-02 13:47:00,
2013-05-02 06:57:00,64.8,30.6,29.69,North,-999,-999.0,-999.0,5,0.00,,,-99.99,0.0,Linux-Irox,2013-05-02 13:57:00,
2013-05-02 07:01:00,65.1,30.9,29.71,North,-999,-999.0,-999.0,5,0.00,,,-99.99,0.0,Linux-Irox,2013-05-02 14:01:00,
2013-05-02 07:07:00,68.5,34.3,29.71,North,-999,-999.0,-999.0,5,0.00,,,-99.99,0.0,Linux-Irox,2013-05-02 14:07:00,
2013-05-02 07:16:00,71.8,37.6,29.71,North,-999,-999.0,-999.0,5,0.00,,,-99.99,0.0,Linux-Irox,2013-05-02 14:16:00,
2013-05-02 07:17:00,72.3,38.1,29.71,North,-999,-999.0,-999.0,5,0.00,,,-99.99,0.0,Linux-Irox,2013-05-02 14:17:00,
2013-05-02 07:27:00,74.5,40.3,29.71,North,-999,-999.0,-999.0,5,0.00,,,-99.99,0.0,Linux-Irox,2013-05-02 14:27:00,
2013-05-02 07:31:00,75.7,41.5,29.71,North,-999,-999.0,-999.0,5,0.00,,,-99.99,0.0,Linux-Irox,2013-05-02 14:31:00,
2013-05-02 07:37:00,76.5,42.3,29.71,North,-999,-999.0,-999.0,5,0.00,,,-99.99,0.0,Linux-Irox,2013-05-02 14:37:00,
2013-05-02 07:46:00,75.9,41.7,29.71,North,-999,-999.0,-999.0,5,0.00,,,-99.99,0.0,Linux-Irox,2013-05-02 14:46:00,
2013-05-02 07:47:00,75.6,41.4,29.71,North,-999,-999.0,-999.0,5,0.00,,,-99.99,0.0,Linux-Irox,2013-05-02 14:47:00,
2013-05-02 07:57:00,76.6,42.4,29.71,North,-999,-999.0,-999.0,5,0.00,,,-99.99,0.0,Linux-Irox,2013-05-02 14:57:00,
2013-05-02 08:01:00,76.6,42.4,29.71,North,-999,-999.0,-999.0,5,0.00,,,-99.99,0.0,Linux-Irox,2013-05-02 15:01:00,
2013-05-02 08:07:00,77.4,43.2,29.71,North,-999,-999.0,-999.0,5,0.00,,,-99.99,0.0,Linux-Irox,2013-05-02 15:07:00,
2013-05-02 08:16:00,80.2,46.0,29.71,North,-999,-999.0,-999.0,5,0.00,,,-99.99,0.0,Linux-Irox,2013-05-02 15:16:00,
2013-05-02 08:17:00,80.8,46.6,29.71,North,-999,-999.0,-999.0,5,0.00,,,-99.99,0.0,Linux-Irox,2013-05-02 15:17:00,
2013-05-02 08:27:00,79.5,45.3,29.71,North,-999,-999.0,-999.0,5,0.00,,,-99.99,0.0,Linux-Irox,2013-05-02 15:27:00,
2013-05-02 08:31:00,80.2,46.0,29.71,North,-999,-999.0,-999.0,5,0.00,,,-99.99,0.0,Linux-Irox,2013-05-02 15:31:00,
2013-05-02 08:37:00,81.7,47.5,29.71,North,-999,-999.0,-999.0,5,0.00,,,-99.99,0.0,Linux-Irox,2013-05-02 15:37:00,
2013-05-02 08:46:00,79.9,45.7,29.71,North,-999,-999.0,-999.0,5,0.00,,,-99.99,0.0,Linux-Irox,2013-05-02 15:46:00,
2013-05-02 08:47:00,79.7,45.5,29.71,North,-999,-999.0,-999.0,5,0.00,,,-99.99,0.0,Linux-Irox,2013-05-02 15:47:00,
2013-05-02 08:57:00,79.7,45.5,29.71,North,-999,-999.0,-999.0,5,0.00,,,-99.99,0.0,Linux-Irox,2013-05-02 15:57:00,
2013-05-02 09:01:00,79.5,45.3,29.71,North,-999,-999.0,-999.0,5,0.00,,,-99.99,0.0,Linux-Irox,2013-05-02 16:01:00,
2013-05-02 09:07:00,80.2,46.0,29.71,North,-999,-999.0,-999.0,5,0.00,,,-99.99,0.0,Linux-Irox,2013-05-02 16:07:00,
2013-05-02 09:16:00,81.5,47.3,29.71,North,-999,-999.0,-999.0,5,0.00,,,-99.99,0.0,Linux-Irox,2013-05-02 16:16:00,
2013-05-02 09:17:00,82.2,48.0,29.71,North,-999,-999.0,-999.0,5,0.00,,,-99.99,0.0,Linux-Irox,2013-05-02 16:17:00,
2013-05-02 09:27:00,81.0,46.8,29.71,North,-999,-999.0,-999.0,5,0.00,,,-99.99,0.0,Linux-Irox,2013-05-02 16:27:00,
2013-05-02 09:31:00,81.5,47.3,29.71,North,-999,-999.0,-999.0,5,0.00,,,-99.99,0.0,Linux-Irox,2013-05-02 16:31:00,
2013-05-02 09:37:00,80.6,46.4,29.71,North,-999,-999.0,-999.0,5,0.00,,,-99.99,0.0,Linux-Irox,2013-05-02 16:37:00,
2013-05-02 09:46:00,82.4,48.2,29.71,North,-999,-999.0,-999.0,5,0.00,,,-99.99,0.0,Linux-Irox,2013-05-02 16:46:00,
2013-05-02 09:47:00,81.9,47.7,29.71,North,-999,-999.0,-999.0,5,0.00,,,-99.99,0.0,Linux-Irox,2013-05-02 16:47:00,
2013-05-02 09:57:00,82.2,48.0,29.71,North,-999,-999.0,-999.0,5,0.00,,,-99.99,0.0,Linux-Irox,2013-05-02 16:57:00,
2013-05-02 10:01:00,82.2,48.0,29.71,North,-999,-999.0,-999.0,5,0.00,,,-99.99,0.0,Linux-Irox,2013-05-02 17:01:00,
2013-05-02 10:07:00,82.6,48.4,29.71,North,-999,-999.0,-999.0,5,0.00,,,-99.99,0.0,Linux-Irox,2013-05-02 17:07:00,
2013-05-02 10:16:00,84.0,49.8,29.71,North,-999,-999.0,-999.0,5,0.00,,,-99.99,0.0,Linux-Irox,2013-05-02 17:16:00,
2013-05-02 10:17:00,84.0,49.8,29.71,North,-999,-999.0,-999.0,5,0.00,,,-99.99,0.0,Linux-Irox,2013-05-02 17:17:00,
2013-05-02 10:27:00,84.4,50.2,29.71,North,-999,-999.0,-999.0,5,0.00,,,-99.99,0.0,Linux-Irox,2013-05-02 17:27:00,
2013-05-02 10:31:00,83.3,49.1,29.71,North,-999,-999.0,-999.0,5,0.00,,,-99.99,0.0,Linux-Irox,2013-05-02 17:31:00,
2013-05-02 10:37:00,83.7,49.5,29.71,North,-999,-999.0,-999.0,5,0.00,,,-99.99,0.0,Linux-Irox,2013-05-02 17:37:00,
2013-05-02 10:46:00,83.5,49.3,29.71,North,-999,-999.0,-999.0,5,0.00,,,-99.99,0.0,Linux-Irox,2013-05-02 17:46:00,
2013-05-02 10:47:00,82.8,48.6,29.71,North,-999,-999.0,-999.0,5,0.00,,,-99.99,0.0,Linux-Irox,2013-05-02 17:47:00,
2013-05-02 10:57:00,83.1,48.9,29.71,North,-999,-999.0,-999.0,5,0.00,,,-99.99,0.0,Linux-Irox,2013-05-02 17:57:00,
2013-05-02 11:01:00,83.7,49.5,29.71,North,-999,-999.0,-999.0,5,0.00,,,-99.99,0.0,Linux-Irox,2013-05-02 18:01:00,
2013-05-02 11:07:00,83.5,49.3,29.71,North,-999,-999.0,-999.0,5,0.00,,,-99.99,0.0,Linux-Irox,2013-05-02 18:07:00,
2013-05-02 11:16:00,84.2,50.0,29.71,North,-999,-999.0,-999.0,5,0.00,,,-99.99,0.0,Linux-Irox,2013-05-02 18:16:00,
2013-05-02 11:17:00,84.2,50.0,29.71,North,-999,-999.0,-999.0,5,0.00,,,-99.99,0.0,Linux-Irox,2013-05-02 18:17:00,
2013-05-02 11:27:00,83.1,48.9,29.71,North,-999,-999.0,-999.0,5,0.00,,,-99.99,0.0,Linux-Irox,2013-05-02 18:27:00,
2013-05-02 11:31:00,83.1,48.9,29.71,North,-999,-999.0,-999.0,5,0.00,,,-99.99,0.0,Linux-Irox,2013-05-02 18:31:00,
2013-05-02 11:37:00,82.8,48.6,29.71,North,-999,-999.0,-999.0,5,0.00,,,-99.99,0.0,Linux-Irox,2013-05-02 18:37:00,
2013-05-02 11:46:00,82.8,48.6,29.71,North,-999,-999.0,-999.0,5,0.00,,,-99.99,0.0,Linux-Irox,2013-05-02 18:46:00,
2013-05-02 11:47:00,82.4,48.2,29.71,North,-999,-999.0,-999.0,5,0.00,,,-99.99,0.0,Linux-Irox,2013-05-02 18:47:00,
2013-05-02 11:57:00,83.1,48.9,29.71,North,-999,-999.0,-999.0,5,0.00,,,-99.99,0.0,Linux-Irox,2013-05-02 18:57:00,
2013-05-02 12:01:00,83.3,49.1,29.71,North,-999,-999.0,-999.0,5,0.00,,,-99.99,0.0,Linux-Irox,2013-05-02 19:01:00,
2013-05-02 12:07:00,83.3,49.1,29.71,North,-999,-999.0,-999.0,5,0.00,,,-99.99,0.0,Linux-Irox,2013-05-02 19:07:00,
2013-05-02 12:16:00,83.7,49.5,29.71,North,-999,-999.0,-999.0,5,0.00,,,-99.99,0.0,Linux-Irox,2013-05-02 19:16:00,
2013-05-02 12:17:00,83.1,48.9,29.71,North,-999,-999.0,-999.0,5,0.00,,,-99.99,0.0,Linux-Irox,2013-05-02 19:17:00,
2013-05-02 12:27:00,82.9,48.7,29.70,North,-999,-999.0,-999.0,5,0.00,,,-99.99,0.0,Linux-Irox,2013-05-02 19:27:00,
2013-05-02 12:31:00,83.1,48.9,29.70,North,-999,-999.0,-999.0,5,0.00,,,-99.99,0.0,Linux-Irox,2013-05-02 19:31:00,
2013-05-02 12:37:00,83.1,48.9,29.70,North,-999,-999.0,-999.0,5,0.00,,,-99.99,0.0,Linux-Irox,2013-05-02 19:37:00,
2013-05-02 12:46:00,83.8,49.6,29.71,North,-999,-999.0,-999.0,5,0.00,,,-99.99,0.0,Linux-Irox,2013-05-02 19:46:00,
2013-05-02 12:47:00,83.7,49.5,29.71,North,-999,-999.0,-999.0,5,0.00,,,-99.99,0.0,Linux-Irox,2013-05-02 19:47:00,
2013-05-02 12:57:00,83.7,49.5,29.71,North,-999,-999.0,-999.0,5,0.00,,,-99.99,0.0,Linux-Irox,2013-05-02 19:57:00,
2013-05-02 13:01:00,83.5,49.3,29.70,North,-999,-999.0,-999.0,5,0.00,,,-99.99,0.0,Linux-Irox,2013-05-02 20:01:00,
2013-05-02 13:07:00,83.8,49.6,29.70,North,-999,-999.0,-999.0,5,0.00,,,-99.99,0.0,Linux-Irox,2013-05-02 20:07:00,
2013-05-02 13:16:00,83.3,49.1,29.70,North,-999,-999.0,-999.0,5,0.00,,,-99.99,0.0,Linux-Irox,2013-05-02 20:16:00,
2013-05-02 13:17:00,83.5,49.3,29.70,North,-999,-999.0,-999.0,5,0.00,,,-99.99,0.0,Linux-Irox,2013-05-02 20:17:00,
2013-05-02 13:27:00,83.7,49.5,29.69,North,-999,-999.0,-999.0,5,0.00,,,-99.99,0.0,Linux-Irox,2013-05-02 20:27:00,
2013-05-02 13:31:00,83.8,49.6,29.69,North,-999,-999.0,-999.0,5,0.00,,,-99.99,0.0,Linux-Irox,2013-05-02 20:31:00,
2013-05-02 13:37:00,84.2,50.0,29.69,North,-999,-999.0,-999.0,5,0.00,,,-99.99,0.0,Linux-Irox,2013-05-02 20:37:00,
2013-05-02 13:47:00,83.8,49.6,29.69,North,-999,-999.0,-999.0,5,0.00,,,-99.99,0.0,Linux-Irox,2013-05-02 20:47:00,
2013-05-02 13:57:00,83.7,49.5,29.69,North,-999,-999.0,-999.0,5,0.00,,,-99.99,0.0,Linux-Irox,2013-05-02 20:57:00,
2013-05-02 14:07:00,83.8,49.6,29.70,North,-999,-999.0,-999.0,5,0.00,,,-99.99,0.0,Linux-Irox,2013-05-02 21:07:00,
2013-05-02 14:17:00,84.4,50.2,29.70,North,-999,-999.0,-999.0,5,0.00,,,-99.99,0.0,Linux-Irox,2013-05-02 21:17:00,
2013-05-02 14:27:00,84.7,50.5,29.69,North,-999,-999.0,-999.0,5,0.00,,,-99.99,0.0,Linux-Irox,2013-05-02 21:27:00,
2013-05-02 14:31:00,85.3,51.1,29.69,North,-999,-999.0,-999.0,5,0.00,,,-99.99,0.0,Linux-Irox,2013-05-02 21:31:00,
2013-05-02 14:37:00,85.3,51.1,29.69,North,-999,-999.0,-999.0,5,0.00,,,-99.99,0.0,Linux-Irox,2013-05-02 21:37:00,
2013-05-02 14:46:00,84.9,50.7,29.69,North,-999,-999.0,-999.0,5,0.00,,,-99.99,0.0,Linux-Irox,2013-05-02 21:46:00,
2013-05-02 14:47:00,85.1,50.9,29.69,North,-999,-999.0,-999.0,5,0.00,,,-99.99,0.0,Linux-Irox,2013-05-02 21:47:00,
2013-05-02 14:57:00,85.1,50.9,29.69,North,-999,-999.0,-999.0,5,0.00,,,-99.99,0.0,Linux-Irox,2013-05-02 21:57:00,
2013-05-02 15:01:00,85.3,51.1,29.68,North,-999,-999.0,-999.0,5,0.00,,,-99.99,0.0,Linux-Irox,2013-05-02 22:01:00,
2013-05-02 15:07:00,85.3,51.1,29.68,North,-999,-999.0,-999.0,5,0.00,,,-99.99,0.0,Linux-Irox,2013-05-02 22:07:00,
2013-05-02 15:16:00,85.5,51.3,29.68,North,-999,-999.0,-999.0,5,0.00,,,-99.99,0.0,Linux-Irox,2013-05-02 22:16:00,
2013-05-02 15:17:00,85.5,51.3,29.68,North,-999,-999.0,-999.0,5,0.00,,,-99.99,0.0,Linux-Irox,2013-05-02 22:17:00,
2013-05-02 15:27:00,84.9,50.7,29.68,North,-999,-999.0,-999.0,5,0.00,,,-99.99,0.0,Linux-Irox,2013-05-02 22:27:00,
2013-05-02 15:31:00,84.7,50.5,29.68,North,-999,-999.0,-999.0,5,0.00,,,-99.99,0.0,Linux-Irox,2013-05-02 22:31:00,
2013-05-02 15:37:00,83.8,49.6,29.68,North,-999,-999.0,-999.0,5,0.00,,,-99.99,0.0,Linux-Irox,2013-05-02 22:37:00,
2013-05-02 15:46:00,84.0,49.8,29.67,North,-999,-999.0,-999.0,5,0.00,,,-99.99,0.0,Linux-Irox,2013-05-02 22:46:00,
2013-05-02 15:47:00,83.8,49.6,29.67,North,-999,-999.0,-999.0,5,0.00,,,-99.99,0.0,Linux-Irox,2013-05-02 22:47:00,
2013-05-02 15:57:00,83.7,49.5,29.67,North,-999,-999.0,-999.0,5,0.00,,,-99.99,0.0,Linux-Irox,2013-05-02 22:57:00,
2013-05-02 16:01:00,83.5,49.3,29.66,North,-999,-999.0,-999.0,5,0.00,,,-99.99,0.0,Linux-Irox,2013-05-02 23:01:00,
2013-05-02 16:07:00,83.3,49.1,29.66,North,-999,-999.0,-999.0,5,0.00,,,-99.99,0.0,Linux-Irox,2013-05-02 23:07:00,
2013-05-02 16:16:00,82.9,48.7,29.66,North,-999,-999.0,-999.0,5,0.00,,,-99.99,0.0,Linux-Irox,2013-05-02 23:16:00,
2013-05-02 16:17:00,82.9,48.7,29.66,North,-999,-999.0,-999.0,5,0.00,,,-99.99,0.0,Linux-Irox,2013-05-02 23:17:00,
2013-05-02 16:27:00,82.8,48.6,29.67,North,-999,-999.0,-999.0,5,0.00,,,-99.99,0.0,Linux-Irox,2013-05-02 23:27:00,
2013-05-02 16:31:00,82.4,48.2,29.67,North,-999,-999.0,-999.0,5,0.00,,,-99.99,0.0,Linux-Irox,2013-05-02 23:31:00,
2013-05-02 16:37:00,82.8,48.6,29.67,North,-999,-999.0,-999.0,5,0.00,,,-99.99,0.0,Linux-Irox,2013-05-02 23:37:00,
2013-05-02 16:46:00,82.8,48.6,29.64,North,-999,-999.0,-999.0,5,0.00,,,-99.99,0.0,Linux-Irox,2013-05-02 23:46:00,
2013-05-02 16:47:00,82.6,48.4,29.64,North,-999,-999.0,-999.0,5,0.00,,,-99.99,0.0,Linux-Irox,2013-05-02 23:47:00,
2013-05-02 16:57:00,81.9,47.7,29.64,North,-999,-999.0,-999.0,5,0.00,,,-99.99,0.0,Linux-Irox,2013-05-02 23:57:00,
2013-05-02 17:01:00,81.7,47.5,29.64,North,-999,-999.0,-999.0,5,0.00,,,-99.99,0.0,Linux-Irox,2013-05-03 00:01:00,
2013-05-02 17:07:00,81.7,47.5,29.64,North,-999,-999.0,-999.0,5,0.00,,,-99.99,0.0,Linux-Irox,2013-05-03 00:07:00,
2013-05-02 17:16:00,81.1,46.9,29.64,North,-999,-999.0,-999.0,5,0.00,,,-99.99,0.0,Linux-Irox,2013-05-03 00:16:00,
2013-05-02 17:17:00,81.0,46.8,29.64,North,-999,-999.0,-999.0,5,0.00,,,-99.99,0.0,Linux-Irox,2013-05-03 00:17:00,
2013-05-02 17:27:00,80.2,46.0,29.65,North,-999,-999.0,-999.0,5,0.00,,,-99.99,0.0,Linux-Irox,2013-05-03 00:27:00,
2013-05-02 17:31:00,80.1,45.9,29.65,North,-999,-999.0,-999.0,5,0.00,,,-99.99,0.0,Linux-Irox,2013-05-03 00:31:00,
2013-05-02 17:37:00,79.7,45.5,29.65,North,-999,-999.0,-999.0,5,0.00,,,-99.99,0.0,Linux-Irox,2013-05-03 00:37:00,
2013-05-02 17:46:00,79.5,45.3,29.65,North,-999,-999.0,-999.0,5,0.00,,,-99.99,0.0,Linux-Irox,2013-05-03 00:46:00,
2013-05-02 17:47:00,79.3,45.1,29.65,North,-999,-999.0,-999.0,5,0.00,,,-99.99,0.0,Linux-Irox,2013-05-03 00:47:00,
2013-05-02 17:57:00,79.2,45.0,29.65,North,-999,-999.0,-999.0,5,0.00,,,-99.99,0.0,Linux-Irox,2013-05-03 00:57:00,
2013-05-02 18:01:00,79.0,44.8,29.67,North,-999,-999.0,-999.0,5,0.00,,,-99.99,0.0,Linux-Irox,2013-05-03 01:01:00,
2013-05-02 18:07:00,78.4,44.2,29.67,North,-999,-999.0,-999.0,5,0.00,,,-99.99,0.0,Linux-Irox,2013-05-03 01:07:00,
2013-05-02 18:16:00,78.4,44.2,29.67,North,-999,-999.0,-999.0,5,0.00,,,-99.99,0.0,Linux-Irox,2013-05-03 01:16:00,
2013-05-02 18:17:00,78.4,44.2,29.67,North,-999,-999.0,-999.0,5,0.00,,,-99.99,0.0,Linux-Irox,2013-05-03 01:17:00,
2013-05-02 18:27:00,77.5,43.3,29.66,North,-999,-999.0,-999.0,5,0.00,,,-99.99,0.0,Linux-Irox,2013-05-03 01:27:00,
2013-05-02 18:31:00,76.8,42.6,29.66,North,-999,-999.0,-999.0,5,0.00,,,-99.99,0.0,Linux-Irox,2013-05-03 01:31:00,
2013-05-02 18:37:00,76.3,42.1,29.66,North,-999,-999.0,-999.0,5,0.00,,,-99.99,0.0,Linux-Irox,2013-05-03 01:37:00,
2013-05-02 18:46:00,75.6,41.4,29.66,North,-999,-999.0,-999.0,5,0.00,,,-99.99,0.0,Linux-Irox,2013-05-03 01:46:00,
2013-05-02 18:47:00,75.4,41.2,29.66,North,-999,-999.0,-999.0,5,0.00,,,-99.99,0.0,Linux-Irox,2013-05-03 01:47:00,
2013-05-02 18:57:00,74.7,40.5,29.66,North,-999,-999.0,-999.0,5,0.00,,,-99.99,0.0,Linux-Irox,2013-05-03 01:57:00,
2013-05-02 19:01:00,74.1,39.9,29.66,North,-999,-999.0,-999.0,5,0.00,,,-99.99,0.0,Linux-Irox,2013-05-03 02:01:00,
2013-05-02 19:07:00,73.4,39.2,29.66,North,-999,-999.0,-999.0,5,0.00,,,-99.99,0.0,Linux-Irox,2013-05-03 02:07:00,
2013-05-02 19:16:00,72.7,38.5,29.66,North,-999,-999.0,-999.0,5,0.00,,,-99.99,0.0,Linux-Irox,2013-05-03 02:16:00,
2013-05-02 19:17:00,72.5,38.3,29.66,North,-999,-999.0,-999.0,5,0.00,,,-99.99,0.0,Linux-Irox,2013-05-03 02:17:00,
2013-05-02 19:27:00,71.2,37.0,29.66,North,-999,-999.0,-999.0,5,0.00,,,-99.99,0.0,Linux-Irox,2013-05-03 02:27:00,
2013-05-02 19:31:00,70.7,36.5,29.66,North,-999,-999.0,-999.0,5,0.00,,,-99.99,0.0,Linux-Irox,2013-05-03 02:31:00,
2013-05-02 19:37:00,70.2,36.0,29.66,North,-999,-999.0,-999.0,5,0.00,,,-99.99,0.0,Linux-Irox,2013-05-03 02:37:00,
2013-05-02 19:46:00,69.4,35.2,29.67,North,-999,-999.0,-999.0,5,0.00,,,-99.99,0.0,Linux-Irox,2013-05-03 02:46:00,
2013-05-02 19:47:00,69.3,35.1,29.67,North,-999,-999.0,-999.0,5,0.00,,,-99.99,0.0,Linux-Irox,2013-05-03 02:47:00,
2013-05-02 19:57:00,68.4,34.2,29.67,North,-999,-999.0,-999.0,5,0.00,,,-99.99,0.0,Linux-Irox,2013-05-03 02:57:00,
2013-05-02 20:01:00,68.2,34.0,29.67,North,-999,-999.0,-999.0,5,0.00,,,-99.99,0.0,Linux-Irox,2013-05-03 03:01:00,
2013-05-02 20:07:00,67.6,33.4,29.67,North,-999,-999.0,-999.0,5,0.00,,,-99.99,0.0,Linux-Irox,2013-05-03 03:07:00,
2013-05-02 20:17:00,67.1,32.9,29.67,North,-999,-999.0,-999.0,5,0.00,,,-99.99,0.0,Linux-Irox,2013-05-03 03:17:00,
2013-05-02 20:27:00,66.4,32.2,29.67,North,-999,-999.0,-999.0,5,0.00,,,-99.99,0.0,Linux-Irox,2013-05-03 03:27:00,
2013-05-02 20:37:00,65.7,31.5,29.67,North,-999,-999.0,-999.0,5,0.00,,,-99.99,0.0,Linux-Irox,2013-05-03 03:37:00,
2013-05-02 20:47:00,65.7,31.5,29.68,North,-999,-999.0,-999.0,5,0.00,,,-99.99,0.0,Linux-Irox,2013-05-03 03:47:00,
2013-05-02 20:57:00,65.5,31.3,29.68,North,-999,-999.0,-999.0,5,0.00,,,-99.99,0.0,Linux-Irox,2013-05-03 03:57:00,
2013-05-02 21:07:00,65.7,31.5,29.68,North,-999,-999.0,-999.0,5,0.00,,,-99.99,0.0,Linux-Irox,2013-05-03 04:07:00,
2013-05-02 21:17:00,64.8,30.6,29.68,North,-999,-999.0,-999.0,5,0.00,,,-99.99,0.0,Linux-Irox,2013-05-03 04:17:00,
2013-05-02 21:27:00,64.4,30.2,29.68,North,-999,-999.0,-999.0,5,0.00,,,-99.99,0.0,Linux-Irox,2013-05-03 04:27:00,
2013-05-02 21:37:00,63.1,28.9,29.68,North,-999,-999.0,-999.0,5,0.00,,,-99.99,0.0,Linux-Irox,2013-05-03 04:37:00,
2013-05-02 21:47:00,62.8,28.6,29.70,North,-999,-999.0,-999.0,5,0.00,,,-99.99,0.0,Linux-Irox,2013-05-03 04:47:00,
2013-05-02 21:57:00,61.9,27.7,29.70,North,-999,-999.0,-999.0,5,0.00,,,-99.99,0.0,Linux-Irox,2013-05-03 04:57:00,
2013-05-02 22:07:00,62.2,28.0,29.70,North,-999,-999.0,-999.0,5,0.00,,,-99.99,0.0,Linux-Irox,2013-05-03 05:07:00,
2013-05-02 22:17:00,62.2,28.0,29.70,North,-999,-999.0,-999.0,5,0.00,,,-99.99,0.0,Linux-Irox,2013-05-03 05:17:00,
2013-05-02 22:27:00,61.7,27.5,29.69,North,-999,-999.0,-999.0,5,0.00,,,-99.99,0.0,Linux-Irox,2013-05-03 05:27:00,
2013-05-02 22:37:00,61.7,27.5,29.69,North,-999,-999.0,-999.0,5,0.00,,,-99.99,0.0,Linux-Irox,2013-05-03 05:37:00,
2013-05-02 22:47:00,61.7,27.5,29.69,North,-999,-999.0,-999.0,5,0.00,,,-99.99,0.0,Linux-Irox,2013-05-03 05:47:00,
2013-05-02 22:57:00,61.5,27.3,29.69,North,-999,-999.0,-999.0,5,0.00,,,-99.99,0.0,Linux-Irox,2013-05-03 05:57:00,
2013-05-02 23:07:00,61.5,27.3,29.69,North,-999,-999.0,-999.0,5,0.00,,,-99.99,0.0,Linux-Irox,2013-05-03 06:07:00,
2013-05-02 23:17:00,61.5,27.3,29.69,North,-999,-999.0,-999.0,5,0.00,,,-99.99,0.0,Linux-Irox,2013-05-03 06:17:00,
2013-05-02 23:27:00,61.3,27.1,29.69,North,-999,-999.0,-999.0,5,0.00,,,-99.99,0.0,Linux-Irox,2013-05-03 06:27:00,
2013-05-02 23:37:00,61.0,26.8,29.69,North,-999,-999.0,-999.0,5,0.00,,,-99.99,0.0,Linux-Irox,2013-05-03 06:37:00,
2013-05-02 23:47:00,60.8,26.6,29.69,North,-999,-999.0,-999.0,5,0.00,,,-99.99,0.0,Linux-Irox,2013-05-03 06:47:00,
2013-05-02 23:57:00,60.1,25.9,29.69,North,-999,-999.0,-999.0,5,0.00,,,-99.99,0.0,Linux-Irox,2013-05-03 06:57:00,